Skip Page Navigation
NASA JPL Caltech
NASA Logo - Jet Propulsion Laboratory + View the NASA Portal
+ Center for Near-Earth Object Studies
JPL Home Earth Solar System Stars & Galaxies Technology
JPL Solar System Dynamics
BODIES ORBITS EPHEMERIDES TOOLS PHYSICAL DATA DISCOVERY FAQ SITE MAP
JPL Small-Body Database Browser
Search: [ help ]  
192894 (1999 XU130)
Classification: Main-belt Asteroid          SPK-ID: 2192894
Ephemeris | Orbit Diagram | Orbital Elements | Mission Design | Physical Parameters | Discovery Circumstances ]

[ show orbit diagram ]
Orbital Elements at Epoch 2459200.5 (2020-Dec-17.0) TDB
Reference: JPL 10 (heliocentric ecliptic J2000)
 Element Value Uncertainty (1-sigma)   Units 
e .2223088146545833 5.6507e-08  
a 2.61644739313624 1.0107e-08 au
q 2.034788074562048 1.4544e-07 au
i 13.43199402564315 4.6576e-06 deg
node 288.5286705496333 2.6503e-05 deg
peri 76.35398456644603 3.1598e-05 deg
M 35.04674263452598 1.3848e-05 deg
tp 2459050.008629879684
(2020-Jul-19.50862988)
5.9385e-05 TDB
period 1545.846751245349
4.23
8.9574e-06
2.452e-08
d
yr
n .2328820756067706 1.3494e-09 deg/d
Q 3.198106711710432 1.2354e-08 au
  Orbit Determination Parameters
   # obs. used (total)      666  
   data-arc span      7730 days (21.16 yr)  
   first obs. used      1999-12-12  
   last obs. used      2021-02-09  
   planetary ephem.      DE441  
   SB-pert. ephem.      SB441-N16  
   condition code      0  
   norm. resid. RMS      .47946  
   source      ORB  
   producer      Otto Matic  
   solution date      2021-Apr-13 22:18:01  

Additional Information
 Earth MOID = 1.07861 au 
 Jupiter MOID = 2.44184 au 
 T_jup = 3.334 
[ show covariance matrix ]

Ephemeris | Orbit Diagram | Orbital Elements | Mission Design | Physical Parameters | Discovery Circumstances ]

Physical Parameter Table
Parameter Symbol Value Units Sigma Reference Notes
absolute magnitude H 15.76   n/a E2021B55  

192894 (1999 XU130)          Discovered 1999-Dec-12 by LINEAR at Socorro
Reference: 20081113/Numbers.arcLast Updated: 2008-11-17

Alternate Designations
 1999 XU130 = 2003 RW5 
Ephemeris | Orbit Diagram | Orbital Elements | Mission Design | Physical Parameters | Discovery Circumstances ]
ABOUT SSD CREDITS/AWARDS PRIVACY/COPYRIGHT GLOSSARY LINKS
FirstGov 2021-May-07 23:48 UT
(server date/time)  
NASA Home Page
Site Manager:   Ryan S. Park
Webmaster  Alan B. Chamberlin